New Orleans, LA

10:16 AM CDT on May 25, 2017 (GMT -0500)
New Orleans International

Weather History for KMSY - September, 2013

Change the Weather History Date:

Friday, September 13, 2013

  Actual Average Record
Temperature  
Mean Temperature 83 °F -  
Max Temperature 93 °F 88 °F 95 °F (1991)
Min Temperature 73 °F 71 °F 57 °F (1969)
Cooling Degree Days 18    
Growing Degree Days 33 (Base 50)    
Moisture  
Dew Point 72 °F    
Average Humidity 71    
Maximum Humidity 97    
Minimum Humidity 37    
Precipitation  
Precipitation 0.00 in - - ()
Sea Level Pressure  
Sea Level Pressure 29.90 in    
Wind  
Wind Speed 3 mph (WNW)    
Max Wind Speed 9 mph    
Max Gust Speed -    
Visibility 10 miles    
Events Fog , Thunderstorm    
Averages and records for this station are not official NWS values.
T = Trace of Precipitation, MM = Missing Value Source: NWS Daily Summary

Daily Weather History Graph

Daily Weather History Graph

Search for Another Location

Airport or City:

Trip Planner

Search our weather history database for the weather conditions in past years. The results will help you decide how hot, cold, wet, or windy it might be!

Date:

Astronomy

Sep. 13, 2013 Rise Set
Actual Time 6:44 AM CDT 7:08 PM CDT
Civil Twilight 6:20 AM CDT 7:32 PM CDT
Nautical Twilight 5:52 AM CDT 8:00 PM CDT
Astronomical Twilight 5:24 AM CDT 8:28 PM CDT
Moon 2:40 PM CDT (9/13) 12:32 AM CDT (9/13)
Length of Visible Light 13h 11m
Length of Day
12h 23m
First Quarter, 61% of the Moon is Illuminated
Sep 13
First Quarter
Sep 19
Full
Sep 26
Last Quarter
Oct 4
New
Oct 11
First Quarter

Hourly Weather History & Observations

Time (CDT) Temp. Heat Index Dew Point Humidity Pressure Visibility Wind Dir Wind Speed Gust Speed Precip Events Conditions
12:53 AM 78.1 °F - 73.9 °F 87% 29.95 in 10.0 mi Calm Calm - N/A   Clear
1:53 AM 75.9 °F - 73.9 °F 94% 29.94 in 10.0 mi Calm Calm - N/A   Clear
2:53 AM 77.0 °F - 73.9 °F 90% 29.92 in 10.0 mi Calm Calm - N/A   Clear
3:53 AM 77.0 °F - 73.9 °F 90% 29.91 in 10.0 mi Calm Calm - N/A   Clear
4:53 AM 73.9 °F - 73.0 °F 97% 29.91 in 9.0 mi NW 3.5 mph - N/A   Clear
5:53 AM 73.9 °F - 73.0 °F 97% 29.92 in 8.0 mi Calm Calm - N/A Fog Shallow Fog
6:53 AM 75.0 °F - 73.0 °F 94% 29.92 in 8.0 mi Calm Calm - N/A Fog Shallow Fog
7:53 AM 79.0 °F - 77.0 °F 94% 29.93 in 9.0 mi Calm Calm - N/A   Partly Cloudy
8:53 AM 84.0 °F 91.9 °F 75.0 °F 74% 29.94 in 10.0 mi NNW 4.6 mph - N/A   Partly Cloudy
9:53 AM 86.0 °F 93.0 °F 73.0 °F 65% 29.94 in 10.0 mi NNW 6.9 mph - N/A   Partly Cloudy
10:53 AM 88.0 °F 95.6 °F 73.0 °F 61% 29.95 in 10.0 mi North 6.9 mph - N/A   Scattered Clouds
11:53 AM 90.0 °F 92.8 °F 66.9 °F 46% 29.94 in 10.0 mi North 4.6 mph - N/A   Scattered Clouds
12:53 PM 91.0 °F 95.2 °F 68.0 °F 47% 29.92 in 10.0 mi North 5.8 mph - N/A   Scattered Clouds
1:53 PM 91.9 °F 95.4 °F 66.9 °F 44% 29.89 in 10.0 mi North 8.1 mph - N/A   Scattered Clouds
2:53 PM 93.0 °F 95.9 °F 66.0 °F 41% 29.87 in 10.0 mi North 8.1 mph - N/A   Partly Cloudy
3:53 PM 91.9 °F 92.5 °F 62.1 °F 37% 29.84 in 10.0 mi ENE 5.8 mph - N/A   Scattered Clouds
4:53 PM 91.9 °F 95.4 °F 66.9 °F 44% 29.83 in 10.0 mi SSE 8.1 mph - N/A   Scattered Clouds
5:53 PM 89.1 °F 95.0 °F 71.1 °F 55% 29.84 in 10.0 mi South 9.2 mph - N/A   Scattered Clouds
6:53 PM 84.9 °F 91.4 °F 73.0 °F 67% 29.85 in 10.0 mi South 9.2 mph - N/A   Mostly Cloudy
7:53 PM 84.0 °F 91.2 °F 73.9 °F 72% 29.87 in 10.0 mi South 9.2 mph - N/A   Mostly Cloudy
8:53 PM 82.9 °F 89.4 °F 73.9 °F 74% 29.88 in 10.0 mi South 5.8 mph - N/A   Mostly Cloudy
9:00 PM 82.4 °F 88.2 °F 73.4 °F 74% 29.87 in 10.0 mi South 6.9 mph - N/A Thunderstorm Thunderstorm
9:17 PM 82.4 °F 88.2 °F 73.4 °F 74% 29.86 in 10.0 mi SSW 3.5 mph - N/A   Overcast
9:53 PM 82.0 °F 87.9 °F 73.9 °F 76% 29.88 in 10.0 mi West 3.5 mph - N/A   Overcast
10:53 PM 80.1 °F 84.5 °F 73.9 °F 81% 29.90 in 10.0 mi WSW 3.5 mph - N/A   Mostly Cloudy
11:53 PM 81.0 °F 86.2 °F 73.9 °F 79% 29.90 in 10.0 mi NW 3.5 mph - N/A   Overcast